TimeEST,TemperatureF,Dew PointF,Humidity,Sea Level PressureIn,VisibilityMPH,Wind Direction,Wind SpeedMPH,Gust SpeedMPH,PrecipitationIn,Events,Conditions,WindDirDegrees,DateUTC
12:53 AM,57.9,55.9,93,30.17,9.0,Calm,Calm,-,N/A,,Overcast,0,2011-11-21 05:53:00
1:45 AM,57.2,55.4,94,30.22,8.0,Calm,Calm,-,N/A,,Overcast,0,2011-11-21 06:45:00
1:53 AM,57.0,55.0,93,30.17,8.0,Calm,Calm,-,N/A,,Overcast,0,2011-11-21 06:53:00
2:53 AM,55.9,55.0,97,30.16,6.0,North,3.5,-,0.00,,Mostly Cloudy,360,2011-11-21 07:53:00
3:53 AM,55.9,55.0,97,30.17,4.0,West,3.5,-,0.00,,Mostly Cloudy,280,2011-11-21 08:53:00
4:43 AM,55.4,53.6,94,30.21,2.0,Calm,Calm,-,N/A,,Partly Cloudy,0,2011-11-21 09:43:00
4:53 AM,54.0,53.1,97,30.17,2.5,Calm,Calm,-,N/A,,Clear,0,2011-11-21 09:53:00
4:57 AM,53.6,53.6,100,30.21,1.0,Calm,Calm,-,N/A,,Mist,0,2011-11-21 09:57:00
5:04 AM,53.6,53.6,100,30.21,0.2,Calm,Calm,-,N/A,Fog,Fog,0,2011-11-21 10:04:00
5:18 AM,53.6,53.6,100,30.22,1.0,Calm,Calm,-,N/A,,Mist,0,2011-11-21 10:18:00
5:25 AM,53.6,53.6,100,30.22,1.2,North,3.5,-,N/A,,Scattered Clouds,350,2011-11-21 10:25:00
5:33 AM,53.6,51.8,94,30.23,0.8,Calm,Calm,-,N/A,,Mist,0,2011-11-21 10:33:00
5:45 AM,53.6,53.6,100,30.23,0.2,Calm,Calm,-,N/A,Fog,Fog,0,2011-11-21 10:45:00
5:53 AM,54.0,53.1,97,30.19,0.5,Calm,Calm,-,N/A,Fog,Fog,0,2011-11-21 10:53:00
6:28 AM,55.4,53.6,94,30.23,0.2,Calm,Calm,-,N/A,Fog,Fog,0,2011-11-21 11:28:00
6:53 AM,54.0,53.1,97,30.21,0.2,WNW,3.5,-,N/A,Fog,Fog,300,2011-11-21 11:53:00
7:53 AM,54.0,53.1,97,30.21,0.2,Calm,Calm,-,N/A,Fog,Fog,0,2011-11-21 12:53:00
8:41 AM,53.6,53.6,100,30.26,0.2,Calm,Calm,-,N/A,Fog,Fog,0,2011-11-21 13:41:00
8:53 AM,55.0,54.0,96,30.23,0.2,Calm,Calm,-,N/A,Fog,Fog,0,2011-11-21 13:53:00
9:40 AM,55.4,55.4,100,30.26,0.8,Calm,Calm,-,N/A,,Mist,0,2011-11-21 14:40:00
9:46 AM,57.2,55.4,94,30.26,2.0,Calm,Calm,-,N/A,,Overcast,0,2011-11-21 14:46:00
9:53 AM,57.0,55.9,96,30.23,2.5,Calm,Calm,-,N/A,,Overcast,0,2011-11-21 14:53:00
10:27 AM,57.2,55.4,94,30.26,2.5,South,3.5,-,N/A,,Scattered Clouds,180,2011-11-21 15:27:00
10:53 AM,64.9,57.9,78,30.22,10.0,Calm,Calm,-,N/A,,Clear,0,2011-11-21 15:53:00
11:53 AM,69.1,57.9,68,30.19,10.0,Calm,Calm,-,N/A,,Clear,0,2011-11-21 16:53:00
12:53 PM,72.0,57.9,61,30.16,10.0,Calm,Calm,-,N/A,,Clear,0,2011-11-21 17:53:00
1:53 PM,73.0,55.9,55,30.13,10.0,West,8.1,-,N/A,,Clear,270,2011-11-21 18:53:00
2:53 PM,73.0,57.0,57,30.12,10.0,West,4.6,-,N/A,,Clear,270,2011-11-21 19:53:00
3:53 PM,72.0,57.9,61,30.14,10.0,Calm,Calm,-,N/A,,Mostly Cloudy,0,2011-11-21 20:53:00
4:40 PM,60.8,57.2,88,30.22,2.0,Variable,4.6,-,0.05,Rain,Rain,0,2011-11-21 21:40:00
4:49 PM,60.8,59.0,94,30.22,6.0,Calm,Calm,-,0.06,Rain,Light Rain,0,2011-11-21 21:49:00
4:53 PM,61.0,59.0,93,30.19,9.0,Calm,Calm,-,0.06,Rain,Light Rain,0,2011-11-21 21:53:00
5:53 PM,61.0,60.1,97,30.17,10.0,Calm,Calm,-,0.04,,Overcast,0,2011-11-21 22:53:00
6:53 PM,60.1,57.9,93,30.20,10.0,West,3.5,-,0.01,Rain,Light Rain,260,2011-11-21 23:53:00
7:53 PM,60.1,57.9,93,30.15,10.0,SE,3.5,-,0.00,,Partly Cloudy,140,2011-11-22 00:53:00
8:53 PM,60.1,57.9,93,30.14,10.0,Calm,Calm,-,N/A,,Mostly Cloudy,0,2011-11-22 01:53:00
9:53 PM,59.0,57.9,96,30.16,9.0,Calm,Calm,-,N/A,,Scattered Clouds,0,2011-11-22 02:53:00
10:53 PM,57.9,57.0,97,30.17,9.0,WNW,4.6,-,N/A,,Clear,300,2011-11-22 03:53:00
11:53 PM,57.9,57.0,97,30.15,10.0,NW,3.5,-,N/A,,Clear,310,2011-11-22 04:53:00